Hourly Data Report for September 09, 2017

All times are specified in Local Standard Time (LST). Add 1 hour to adjust for Daylight Saving Time where and when it is observed.

EAST POINT (AUT)
PRINCE EDWARD ISLAND

46°27'36.000" N
61°59'18.000" W
7.70 m
8300418
71412
WEP

Download Data

Hourly Data (September 2017)
Hourly Data Report for September 9, 2017
Temp Definition
°C
Dew Point Temp Definition
°C
Rel Hum Definition
%
Wind Dir Definition
10's deg

Wind Spd Definition
km/h
Visibility Definition
km
Stn Press Definition
kPa
Hmdx Definition


Wind Chill Definition


Weather Definition


TIME
00:00 14.2 13.2 94 20 9   101.81     LegendNANA
01:00 13.5 10.6 83 23 10   101.82     LegendNANA
02:00 13.4 10.6 84 22 10   101.84     LegendNANA
03:00 13.1 10.7 86 21 11   101.84     LegendNANA
04:00 12.9 10.8 87 21 8   101.84     LegendNANA
05:00 12.9 10.8 87 21 10   101.85     LegendNANA
06:00 13.8 11.7 87 17 5   101.92     LegendNANA
07:00 14.8 13.2 91 14 3   101.96     LegendNANA
08:00 17.8 15.2 85 19 5   101.99     LegendNANA
09:00 19.0 15.0 78 18 3   102.02     LegendNANA
10:00 19.1 15.0 77 3 6   102.04     LegendNANA
11:00 18.2 15.2 83 9 9   102.04     LegendNANA
12:00 19.0 15.2 79 3 5   102.03     LegendNANA
13:00 18.4 14.5 78 30 20   102.03     LegendNANA
14:00 19.2 15.6 80 32 16   102.02     LegendNANA
15:00 18.7 15.2 80 34 16   102.02     LegendNANA
16:00 18.6 15.4 82 1 19   102.02     LegendNANA
17:00 18.0 15.4 85 3 24   102.01     LegendNANA
18:00 17.6 15.6 88 3 27   101.98     LegendNANA
19:00 18.1 16.2 89 4 28   102.01     LegendNANA
20:00 17.8 15.9 88 5 25   102.04     LegendNANA
21:00 17.5 15.6 89 5 22   102.06     LegendNANA
22:00 17.3 15.5 89 4 19   102.09     LegendNANA
23:00 16.9 15.1 89 3 24   102.06     LegendNANA

Notes on Data Quality.

Legend

  • E = Estimated
  • M = Missing
  • NA = Not Available
  • ‡ = Partner data that is not subject to review by the National Climate Archives
Date modified: